UAL132 PTKK-PGUM

Flight info

Callsign UAL132
Flight time 1h 27m
Altitude 36000
Route WUMVE GUNSS
Aircraft B38M/M-SDE1FGHILORVWXY/HB1

Departure

Time 2026-04-29 15:35
Airport Chuuk International Airport (PTKK)

Arrival

Time 2026-04-29 17:03
Airport Antonio B. Won Pat International Airport (PGUM)
Time Latitude Longitude Altitude Speed Heading
2026-04-29 15:09 7.45830 151.84141 24 ft 0 kts 224°
2026-04-29 15:31 7.45824 151.84135 24 ft 3 kts 227°
2026-04-29 15:31 7.45822 151.84115 24 ft 3 kts 292°
2026-04-29 15:31 7.45840 151.84090 22 ft 6 kts 310°
2026-04-29 15:31 7.45851 151.84078 22 ft 0 kts 313°
2026-04-29 15:32 7.45858 151.84071 22 ft 3 kts 315°
2026-04-29 15:32 7.45892 151.84033 22 ft 10 kts 298°
2026-04-29 15:33 7.45869 151.83960 23 ft 13 kts 225°
2026-04-29 15:33 7.45799 151.83888 22 ft 16 kts 225°
2026-04-29 15:33 7.45717 151.83803 22 ft 18 kts 227°
2026-04-29 15:33 7.45672 151.83714 21 ft 11 kts 250°
2026-04-29 15:34 7.45631 151.83703 21 ft 6 kts 122°
2026-04-29 15:34 7.45646 151.83729 22 ft 5 kts 46°
2026-04-29 15:34 7.45647 151.83731 22 ft 0 kts 46°
2026-04-29 15:35 7.45804 151.83895 22 ft 76 kts 45°
2026-04-29 15:35 7.46366 151.84476 20 ft 153 kts 45°
2026-04-29 15:35 7.47215 151.85358 428 ft 184 kts 45°
2026-04-29 15:35 7.48174 151.86314 1307 ft 202 kts 44°
2026-04-29 15:36 7.49330 151.87078 2315 ft 208 kts 18°
2026-04-29 15:36 7.50891 151.87068 2726 ft 249 kts 341°
2026-04-29 15:36 7.52275 151.85947 3537 ft 268 kts 305°
2026-04-29 15:36 7.53261 151.84345 4709 ft 262 kts 303°
2026-04-29 15:37 7.54311 151.82771 5592 ft 279 kts 306°
2026-04-29 15:37 7.55432 151.81133 6491 ft 286 kts 306°
2026-04-29 15:37 7.56569 151.79457 7445 ft 291 kts 305°
2026-04-29 15:37 7.57704 151.77779 8369 ft 297 kts 305°
2026-04-29 15:38 7.58885 151.76027 9358 ft 299 kts 305°
2026-04-29 15:38 7.60044 151.74308 10263 ft 304 kts 304°
2026-04-29 15:38 7.61264 151.72496 10818 ft 319 kts 304°
2026-04-29 15:38 7.62534 151.70610 11459 ft 329 kts 304°
2026-04-29 15:39 7.63824 151.68694 12353 ft 330 kts 304°
2026-04-29 15:39 7.65124 151.66764 13156 ft 334 kts 304°
2026-04-29 15:39 7.66436 151.64813 13922 ft 338 kts 304°
2026-04-29 15:39 7.67748 151.62864 14583 ft 342 kts 303°
2026-04-29 15:40 7.69092 151.60864 15243 ft 346 kts 303°
2026-04-29 15:40 7.70451 151.58845 15867 ft 351 kts 303°
2026-04-29 15:40 7.71830 151.56794 16535 ft 354 kts 302°
2026-04-29 15:40 7.73220 151.54727 17140 ft 359 kts 302°
2026-04-29 15:41 7.74630 151.52632 17756 ft 362 kts 301°
2026-04-29 15:41 7.76056 151.50511 18338 ft 366 kts 301°
2026-04-29 15:41 7.77473 151.48405 18859 ft 369 kts 301°
2026-04-29 15:41 7.78939 151.46278 19386 ft 372 kts 307°
2026-04-29 15:42 7.80694 151.44337 19931 ft 374 kts 310°
2026-04-29 15:42 7.82451 151.42391 20445 ft 377 kts 310°
2026-04-29 15:42 7.84211 151.40414 20984 ft 378 kts 310°
2026-04-29 15:42 7.85969 151.38423 21509 ft 380 kts 310°
2026-04-29 15:43 7.87728 151.36421 22024 ft 382 kts 310°
2026-04-29 15:43 7.89498 151.34404 22546 ft 384 kts 310°
2026-04-29 15:43 7.91251 151.32402 23049 ft 387 kts 311°
2026-04-29 15:43 7.93045 151.30355 23505 ft 390 kts 311°
2026-04-29 15:44 7.94852 151.28292 23889 ft 393 kts 311°
2026-04-29 15:44 7.96673 151.26213 24290 ft 396 kts 313°
2026-04-29 15:44 7.98522 151.24125 24662 ft 399 kts 313°
2026-04-29 15:44 8.00377 151.22021 25075 ft 401 kts 313°
2026-04-29 15:45 8.02234 151.19903 25452 ft 404 kts 313°
2026-04-29 15:45 8.04079 151.17794 25804 ft 407 kts 313°
2026-04-29 15:45 8.05967 151.15635 26167 ft 410 kts 313°
2026-04-29 15:45 8.07863 151.13467 26546 ft 413 kts 313°
2026-04-29 15:46 8.09773 151.11284 26905 ft 416 kts 313°
2026-04-29 15:46 8.11673 151.09114 27254 ft 419 kts 313°
2026-04-29 15:46 8.13610 151.06898 27568 ft 423 kts 313°
2026-04-29 15:46 8.15564 151.04663 27928 ft 425 kts 313°
2026-04-29 15:47 8.17527 151.02418 28280 ft 427 kts 313°
2026-04-29 15:47 8.19512 151.00147 28538 ft 432 kts 313°
2026-04-29 15:47 8.21509 150.97862 28897 ft 434 kts 313°
2026-04-29 15:47 8.23488 150.95597 29281 ft 435 kts 313°
2026-04-29 15:48 8.25498 150.93297 29561 ft 439 kts 313°
2026-04-29 15:48 8.27532 150.90967 29838 ft 442 kts 313°
2026-04-29 15:48 8.29571 150.88633 30183 ft 443 kts 313°
2026-04-29 15:48 8.31615 150.86293 30482 ft 444 kts 313°
2026-04-29 15:49 8.33663 150.83947 30734 ft 447 kts 313°
2026-04-29 15:49 8.35726 150.81583 31017 ft 449 kts 313°
2026-04-29 15:49 8.37769 150.79243 31263 ft 451 kts 313°
2026-04-29 15:49 8.39852 150.76856 31510 ft 453 kts 313°
2026-04-29 15:50 8.41947 150.74455 31757 ft 456 kts 313°
2026-04-29 15:50 8.44053 150.72040 32003 ft 458 kts 313°
2026-04-29 15:50 8.46170 150.69612 32222 ft 461 kts 313°
2026-04-29 15:50 8.48277 150.67196 32442 ft 464 kts 313°
2026-04-29 15:51 8.50410 150.64750 32761 ft 464 kts 313°
2026-04-29 15:51 8.54735 150.59787 33116 ft 471 kts 313°
2026-04-29 15:51 8.56916 150.57285 33354 ft 474 kts 313°
2026-04-29 15:52 8.59088 150.54792 33726 ft 472 kts 313°
2026-04-29 15:52 8.61266 150.52292 33930 ft 475 kts 313°
2026-04-29 15:52 8.63450 150.49783 34201 ft 475 kts 313°
2026-04-29 15:53 8.67828 150.44754 34572 ft 479 kts 312°
2026-04-29 15:53 8.70024 150.42231 34896 ft 477 kts 313°
2026-04-29 15:53 8.72207 150.39722 35283 ft 473 kts 313°
2026-04-29 15:53 8.74380 150.37225 35591 ft 472 kts 312°
2026-04-29 15:54 8.76530 150.34754 35785 ft 474 kts 312°
2026-04-29 15:54 8.78714 150.32242 35888 ft 475 kts 312°
2026-04-29 15:54 8.80895 150.29734 35885 ft 473 kts 313°
2026-04-29 15:55 8.85200 150.24782 35883 ft 467 kts 313°
2026-04-29 15:55 8.89473 150.19866 35884 ft 469 kts 312°
2026-04-29 15:56 8.93797 150.14885 35897 ft 468 kts 313°
2026-04-29 15:56 8.98070 150.09964 35891 ft 465 kts 312°
2026-04-29 15:57 9.02334 150.05051 35883 ft 463 kts 313°
2026-04-29 15:57 9.06561 150.00180 35884 ft 463 kts 313°
2026-04-29 15:58 9.10815 149.95274 35877 ft 465 kts 312°
2026-04-29 15:58 9.14373 149.91171 35882 ft 466 kts 312°
2026-04-29 15:59 9.18658 149.86226 35887 ft 465 kts 313°
2026-04-29 15:59 9.22910 149.81317 35881 ft 463 kts 312°
2026-04-29 16:00 9.27132 149.76442 35881 ft 465 kts 312°
2026-04-29 16:00 9.31415 149.71495 35888 ft 466 kts 312°
2026-04-29 16:01 9.35689 149.66554 35891 ft 465 kts 312°
2026-04-29 16:01 9.39920 149.61663 35883 ft 464 kts 312°
2026-04-29 16:02 9.44171 149.56746 35888 ft 461 kts 313°
2026-04-29 16:02 9.48398 149.51855 35895 ft 461 kts 312°
2026-04-29 16:03 9.52592 149.46998 35895 ft 459 kts 312°
2026-04-29 16:03 9.56802 149.42124 35890 ft 459 kts 312°
2026-04-29 16:04 9.60990 149.37272 35891 ft 459 kts 312°
2026-04-29 16:04 9.65197 149.32396 35895 ft 459 kts 312°
2026-04-29 16:05 9.69410 149.27511 35895 ft 460 kts 312°
2026-04-29 16:05 9.73629 149.22616 35889 ft 459 kts 312°
2026-04-29 16:06 9.77803 149.17774 35899 ft 458 kts 312°
2026-04-29 16:06 9.81988 149.12915 35896 ft 457 kts 312°
2026-04-29 16:07 9.86174 149.08053 35897 ft 457 kts 312°
2026-04-29 16:07 9.90361 149.03187 35895 ft 457 kts 313°
2026-04-29 16:08 9.94511 148.98363 35894 ft 456 kts 313°
2026-04-29 16:08 9.98687 148.93508 35895 ft 456 kts 313°
2026-04-29 16:09 10.02863 148.88649 35895 ft 456 kts 313°
2026-04-29 16:09 10.07020 148.83811 35894 ft 456 kts 313°
2026-04-29 16:10 10.11190 148.78956 35900 ft 456 kts 313°
2026-04-29 16:10 10.15362 148.74094 35902 ft 456 kts 313°
2026-04-29 16:11 10.19500 148.69274 35898 ft 455 kts 313°
2026-04-29 16:11 10.23670 148.64411 35901 ft 455 kts 313°
2026-04-29 16:12 10.27832 148.59557 35901 ft 455 kts 313°
2026-04-29 16:12 10.31971 148.54727 35906 ft 455 kts 313°
2026-04-29 16:13 10.36130 148.49873 35902 ft 454 kts 313°
2026-04-29 16:13 10.40278 148.45027 35903 ft 454 kts 313°
2026-04-29 16:14 10.44402 148.40209 35906 ft 454 kts 313°
2026-04-29 16:14 10.48549 148.35362 35905 ft 454 kts 313°
2026-04-29 16:15 10.52701 148.30507 35909 ft 454 kts 313°
2026-04-29 16:15 10.56849 148.25654 35909 ft 454 kts 313°
2026-04-29 16:16 10.60969 148.20832 35911 ft 453 kts 312°
2026-04-29 16:16 10.65088 148.16008 35905 ft 450 kts 313°
2026-04-29 16:17 10.69205 148.11185 35911 ft 451 kts 313°
2026-04-29 16:17 10.73316 148.06356 35907 ft 450 kts 311°
2026-04-29 16:18 10.77034 148.01289 35898 ft 450 kts 303°
2026-04-29 16:18 10.80255 147.95804 35925 ft 451 kts 304°
2026-04-29 16:19 10.83641 147.90431 35919 ft 449 kts 305°
2026-04-29 16:19 10.87057 147.85135 35922 ft 450 kts 305°
2026-04-29 16:20 10.90489 147.79839 35916 ft 447 kts 305°
2026-04-29 16:20 10.93910 147.74558 35913 ft 445 kts 305°
2026-04-29 16:21 10.97326 147.69280 35916 ft 447 kts 305°
2026-04-29 16:21 11.00728 147.64021 35913 ft 447 kts 305°
2026-04-29 16:22 11.04158 147.58718 35922 ft 448 kts 305°
2026-04-29 16:22 11.07581 147.53421 35913 ft 446 kts 305°
2026-04-29 16:23 11.10976 147.48166 35919 ft 446 kts 305°
2026-04-29 16:23 11.14386 147.42885 35919 ft 444 kts 305°
2026-04-29 16:24 11.17795 147.37603 35919 ft 446 kts 306°
2026-04-29 16:24 11.21185 147.32347 35914 ft 447 kts 306°
2026-04-29 16:25 11.24612 147.27032 35926 ft 446 kts 306°
2026-04-29 16:25 11.28012 147.21755 35927 ft 446 kts 306°
2026-04-29 16:26 11.31390 147.16510 35914 ft 443 kts 306°
2026-04-29 16:26 11.34793 147.11224 35922 ft 446 kts 306°
2026-04-29 16:27 11.38193 147.05939 35919 ft 446 kts 306°
2026-04-29 16:27 11.41578 147.00675 35921 ft 447 kts 306°
2026-04-29 16:28 11.44982 146.95380 35918 ft 446 kts 306°
2026-04-29 16:28 11.48376 146.90095 35927 ft 443 kts 306°
2026-04-29 16:29 11.51760 146.84826 35923 ft 445 kts 306°
2026-04-29 16:29 11.55135 146.79567 35920 ft 445 kts 306°
2026-04-29 16:30 11.58539 146.74258 35931 ft 447 kts 306°
2026-04-29 16:30 11.61931 146.68966 35923 ft 444 kts 306°
2026-04-29 16:31 11.65301 146.63707 35927 ft 445 kts 306°
2026-04-29 16:31 11.68689 146.58417 35925 ft 445 kts 306°
2026-04-29 16:32 11.72082 146.53117 35925 ft 446 kts 306°
2026-04-29 16:32 11.75480 146.47805 35928 ft 448 kts 306°
2026-04-29 16:33 11.80559 146.39861 35928 ft 446 kts 306°
2026-04-29 16:33 11.83948 146.34553 35929 ft 444 kts 306°
2026-04-29 16:34 11.87308 146.29294 35920 ft 446 kts 307°
2026-04-29 16:34 11.90707 146.23968 35932 ft 447 kts 306°
2026-04-29 16:35 11.94109 146.18631 35937 ft 449 kts 307°
2026-04-29 16:35 11.97509 146.13301 35934 ft 447 kts 306°
2026-04-29 16:36 12.00881 146.08002 35940 ft 446 kts 307°
2026-04-29 16:36 12.04271 146.02684 35938 ft 448 kts 306°
2026-04-29 16:37 12.07600 145.97449 35741 ft 428 kts 306°
2026-04-29 16:37 12.09219 145.94903 35226 ft 426 kts 307°
2026-04-29 16:37 12.10287 145.93224 34816 ft 427 kts 306°
2026-04-29 16:38 12.12457 145.89812 34046 ft 427 kts 307°
2026-04-29 16:38 12.14077 145.87268 33492 ft 425 kts 306°
2026-04-29 16:38 12.15660 145.84774 32973 ft 423 kts 307°
2026-04-29 16:38 12.17260 145.82254 32481 ft 420 kts 307°
2026-04-29 16:39 12.18845 145.79756 31993 ft 417 kts 307°
2026-04-29 16:39 12.20423 145.77274 31508 ft 414 kts 307°
2026-04-29 16:39 12.21992 145.74805 31031 ft 412 kts 307°
2026-04-29 16:39 12.23525 145.72388 30574 ft 409 kts 307°
2026-04-29 16:40 12.25073 145.69948 30110 ft 407 kts 307°
2026-04-29 16:40 12.26610 145.67526 29589 ft 405 kts 307°
2026-04-29 16:40 12.28141 145.65110 29093 ft 403 kts 307°
2026-04-29 16:40 12.29661 145.62719 28674 ft 399 kts 305°
2026-04-29 16:41 12.31147 145.60342 28257 ft 395 kts 304°
2026-04-29 16:41 12.32613 145.58012 27816 ft 393 kts 304°
2026-04-29 16:41 12.34094 145.55669 27399 ft 390 kts 306°
2026-04-29 16:41 12.35564 145.53346 26980 ft 388 kts 305°
2026-04-29 16:42 12.37028 145.51037 26566 ft 385 kts 304°
2026-04-29 16:42 12.38483 145.48739 26158 ft 383 kts 304°
2026-04-29 16:42 12.39931 145.46450 25765 ft 382 kts 304°
2026-04-29 16:42 12.41373 145.44171 25363 ft 381 kts 305°
2026-04-29 16:43 12.42809 145.41901 24969 ft 379 kts 304°
2026-04-29 16:43 12.44244 145.39633 24570 ft 378 kts 304°
2026-04-29 16:43 12.45655 145.37400 24186 ft 378 kts 304°
2026-04-29 16:43 12.47081 145.35144 23797 ft 377 kts 304°
2026-04-29 16:44 12.48508 145.32887 23378 ft 377 kts 304°
2026-04-29 16:44 12.49937 145.30626 22927 ft 376 kts 304°
2026-04-29 16:44 12.51356 145.28378 22523 ft 374 kts 304°
2026-04-29 16:44 12.52767 145.26146 22140 ft 372 kts 304°
2026-04-29 16:45 12.54149 145.23955 21760 ft 370 kts 305°
2026-04-29 16:45 12.55542 145.21749 21387 ft 368 kts 305°
2026-04-29 16:45 12.56925 145.19558 21008 ft 366 kts 304°
2026-04-29 16:45 12.58304 145.17372 20633 ft 363 kts 304°
2026-04-29 16:46 12.59212 145.15933 20388 ft 361 kts 304°
2026-04-29 16:46 12.60566 145.13786 20014 ft 356 kts 304°
2026-04-29 16:46 12.61908 145.11660 19658 ft 355 kts 304°
2026-04-29 16:46 12.63246 145.09537 19286 ft 353 kts 304°
2026-04-29 16:47 12.64575 145.07428 18928 ft 352 kts 304°
2026-04-29 16:47 12.65906 145.05317 18564 ft 352 kts 304°
2026-04-29 16:47 12.67231 145.03212 18195 ft 351 kts 304°
2026-04-29 16:47 12.68537 145.01137 17797 ft 350 kts 304°
2026-04-29 16:48 12.69856 144.99043 17420 ft 348 kts 304°
2026-04-29 16:48 12.71166 144.96962 17058 ft 346 kts 304°
2026-04-29 16:48 12.72465 144.94898 16716 ft 344 kts 304°
2026-04-29 16:48 12.73761 144.92839 16354 ft 342 kts 304°
2026-04-29 16:49 12.75050 144.90792 15999 ft 341 kts 305°
2026-04-29 16:49 12.76337 144.88748 15640 ft 339 kts 305°
2026-04-29 16:49 12.77614 144.86716 15275 ft 338 kts 304°
2026-04-29 16:49 12.78992 144.84801 14801 ft 338 kts 318°
2026-04-29 16:50 12.80926 144.83496 14447 ft 331 kts 339°
2026-04-29 16:50 12.83058 144.82616 14093 ft 329 kts 341°
2026-04-29 16:50 12.85196 144.81749 13679 ft 329 kts 342°
2026-04-29 16:50 12.87320 144.80901 13208 ft 326 kts 342°
2026-04-29 16:51 12.89424 144.80071 12780 ft 322 kts 341°
2026-04-29 16:51 12.91500 144.79257 12383 ft 317 kts 343°
2026-04-29 16:51 12.93529 144.78466 12000 ft 312 kts 342°
2026-04-29 16:51 12.95549 144.77678 11604 ft 309 kts 342°
2026-04-29 16:52 12.97548 144.76899 11222 ft 305 kts 341°
2026-04-29 16:52 12.99522 144.76128 10841 ft 301 kts 342°
2026-04-29 16:52 13.01476 144.75366 10481 ft 298 kts 343°
2026-04-29 16:52 13.03406 144.74614 10101 ft 295 kts 342°
2026-04-29 16:53 13.05296 144.73876 9724 ft 293 kts 343°
2026-04-29 16:53 13.07199 144.73135 9319 ft 291 kts 343°
2026-04-29 16:53 13.09085 144.72399 8930 ft 288 kts 343°
2026-04-29 16:53 13.10950 144.71670 8566 ft 285 kts 343°
2026-04-29 16:54 13.12793 144.70950 8220 ft 282 kts 343°
2026-04-29 16:54 13.14628 144.70235 7878 ft 282 kts 342°
2026-04-29 16:54 13.16458 144.69521 7530 ft 282 kts 342°
2026-04-29 16:54 13.18300 144.68802 7182 ft 283 kts 342°
2026-04-29 16:55 13.20121 144.68091 6818 ft 282 kts 342°
2026-04-29 16:55 13.21941 144.67381 6461 ft 276 kts 342°
2026-04-29 16:55 13.23720 144.66684 6104 ft 271 kts 342°
2026-04-29 16:55 13.25425 144.65883 5769 ft 265 kts 339°
2026-04-29 16:56 13.27070 144.65089 5499 ft 257 kts 339°
2026-04-29 16:56 13.28671 144.64324 5236 ft 249 kts 339°
2026-04-29 16:56 13.30208 144.63595 4994 ft 244 kts 340°
2026-04-29 16:56 13.31745 144.62867 4775 ft 241 kts 340°
2026-04-29 16:57 13.33252 144.62153 4542 ft 237 kts 340°
2026-04-29 16:57 13.34746 144.61446 4279 ft 236 kts 340°
2026-04-29 16:57 13.36231 144.60743 4040 ft 233 kts 340°
2026-04-29 16:57 13.37732 144.60264 3758 ft 220 kts
2026-04-29 16:58 13.39123 144.60664 3500 ft 200 kts 39°
2026-04-29 16:58 13.40001 144.61664 3340 ft 182 kts 62°
2026-04-29 16:58 13.40584 144.62769 3160 ft 171 kts 64°
2026-04-29 16:58 13.41119 144.63827 2982 ft 162 kts 65°
2026-04-29 16:59 13.41616 144.64838 2804 ft 157 kts 66°
2026-04-29 16:59 13.42091 144.65830 2687 ft 156 kts 66°
2026-04-29 16:59 13.42563 144.66823 2563 ft 151 kts 67°
2026-04-29 16:59 13.43000 144.67731 2484 ft 137 kts 66°
2026-04-29 17:00 13.43405 144.68596 2309 ft 132 kts 67°
2026-04-29 17:00 13.43794 144.69448 2104 ft 132 kts 66°
2026-04-29 17:00 13.44195 144.70313 1821 ft 137 kts 68°
2026-04-29 17:00 13.44599 144.71177 1675 ft 136 kts 68°
2026-04-29 17:01 13.45041 144.72031 1631 ft 133 kts 66°
2026-04-29 17:01 13.45452 144.72866 1398 ft 128 kts 67°
2026-04-29 17:01 13.45776 144.73721 1244 ft 130 kts 66°
2026-04-29 17:01 13.46151 144.74600 1074 ft 138 kts 65°
2026-04-29 17:02 13.46580 144.75496 892 ft 141 kts 67°
2026-04-29 17:02 13.46993 144.76415 700 ft 141 kts 64°
2026-04-29 17:02 13.47396 144.77304 542 ft 135 kts 64°
2026-04-29 17:02 13.47794 144.78171 361 ft 136 kts 65°
2026-04-29 17:03 13.48180 144.79018 280 ft 120 kts 65°
2026-04-29 17:03 13.48484 144.79691 283 ft 81 kts 65°
2026-04-29 17:03 13.48653 144.80048 292 ft 48 kts 61°
2026-04-29 17:03 13.48788 144.80355 298 ft 45 kts 65°
2026-04-29 17:04 13.48916 144.80639 300 ft 42 kts 65°
2026-04-29 17:04 13.49031 144.80888 301 ft 26 kts 60°
2026-04-29 17:04 13.49146 144.80957 302 ft 18 kts 23°
2026-04-29 17:04 13.49250 144.81003 301 ft 17 kts 21°
2026-04-29 17:05 13.49338 144.81039 301 ft 9 kts 20°
2026-04-29 17:05 13.49406 144.81031 302 ft 12 kts 326°
2026-04-29 17:05 13.49485 144.80985 299 ft 14 kts 334°
2026-04-29 17:05 13.49553 144.80917 299 ft 13 kts 265°
2026-04-29 17:06 13.49505 144.80828 302 ft 16 kts 240°
2026-04-29 17:06 13.49457 144.80738 301 ft 10 kts 242°
2026-04-29 17:06 13.49412 144.80710 299 ft 8 kts 174°
2026-04-29 17:06 13.49371 144.80717 301 ft 2 kts 167°
2026-04-29 17:07 13.49370 144.80717 301 ft 0 kts 167°